Regional Weather Roundup
Issued by NWS

Home | Current Version | Previous Version | Graphics & Text | Print | Product List | Glossary On
Versions: 1 2 3 4 5 6 7 8 9 10 11 12 13 14 15 16 17 18 19 20 21 22 23 24 25 26 27 28 29 30 31 32 33 34 35 36 37 38 39 40 41 42 43 44 45 46 47 48 49 50
000
ASUS43 KMPX 121301
RWRMN
WEATHER ROUNDUP FOR MINNESOTA
NATIONAL WEATHER SERVICE TWIN CITIES/CHANHASSEN MN
700 AM CST TUE DEC 12 2017


NOTE: "FAIR" INDICATES FEW OR NO CLOUDS BELOW 12,000 FEET WITH NO
SIGNIFICANT WEATHER AND/OR OBSTRUCTIONS TO VISIBILITY. N/A MEANS
CURRENT SKY AND/OR WEATHER CONDITIONS ARE NOT AVAILABLE.

MNZ060>063-068>070-121400-
   Twin Cities Metro

CITY           SKY/WX    TMP DP  RH WIND       PRES   REMARKS
TWIN CITIES    CLOUDY     6   2  83 NW8       30.23F WCI  -7
ST PAUL        CLOUDY     6   1  80 NW8       30.24F WCI  -7
CRYSTAL        CLOUDY     5  -2  72 W3        30.21F
BLAINE         CLEAR      5   1  85 W6        30.21S WCI  -6
LAKEVILLE      CLOUDY     3   1  92 W5        30.21F WCI  -6
EDEN PRAIRIE   CLOUDY     7   1  76 W5        30.22F WCI  -2
SOUTH ST PAUL  CLOUDY     8   2  77 NW3       30.22F
LAKE ELMO      FAIR       7   3  85 NW6       30.22S WCI  -3
$$
MNZ001>005-007-008-013>017-022>024-027-028-121400-
   Northwest Minnesota

CITY           SKY/WX    TMP DP  RH WIND       PRES   REMARKS
BEMIDJI        CLOUDY     4   0  86 CALM      30.09F
HALLOCK        CLOUDY    16  14  93 S14       30.04F WCI   1
ROSEAU         CLOUDY     9   3  78 SE6       30.05F WCI  -1
WARROAD        LGT SNOW   3   0  85 E5        30.07F WCI  -6
THIEF RVR FALL CLOUDY    12   9  85 S12       30.08F WCI  -2
CROOKSTON      CLOUDY    16  12  86 S14       30.09F WCI   1
FOSSTON        CLOUDY     9   7  92 S9        30.09F WCI  -5
DETROIT LAKES  CLOUDY    14  12  92 S8        30.10F WCI   3
MOORHEAD       CLOUDY    16  10  79 S9        30.13F WCI   4
PARK RAPIDS    CLOUDY     7   3  84 S5        30.10F WCI  -2
MAHNOMEN       CLOUDY    12   9  89 S7        30.09F WCI   1
$$
MNZ006-009>011-018-025>026-121400-
   North Central Minnesota

CITY           SKY/WX    TMP DP  RH WIND       PRES   REMARKS
BAUDETTE       CLOUDY     1  -2  87 S3        30.08F
FLAG ISLAND    CLOUDY     3   0  85 SE3       30.08F
INTL FALLS     CLOUDY    -3  -8  79 SW3       30.11S
WASKISH        FLURRIES   1   0  92 CALM      30.11F
LONGVILLE      CLOUDY    -4  -8  84 CALM      30.14S
GRAND RAPIDS   CLOUDY    -4  -7  87 CALM      30.15S
CRANE LAKE     CLOUDY    -8  -9  92 CALM      30.13F
ORR            CLOUDY    -2  -6  84 W3        30.08S
COOK           CLOUDY     0  -4  85 W6        30.10F WCI -12
WALKER         CLOUDY     2  -1  84 CALM      30.12F
$$
MNZ012-019>021-037-121400-
   Northeast Minnesota

CITY           SKY/WX    TMP DP  RH WIND       PRES   REMARKS
DULUTH         CLOUDY    -2  -5  87 W8        30.10S WCI -17
ELY            CLOUDY    -8 -11  84 CALM      30.08S
HIBBING        CLOUDY    -4  -8  83 W3        30.11S
EVELETH        CLOUDY    -3  -8  79 W3        30.11S
DULUTH HARBOR  CLOUDY     5   0  78 W8        30.20R WCI  -8
TWO HARBORS    CLOUDY    -2  -9  71 CALM      30.10S
SILVER BAY     CLEAR     -6  -8  92 CALM      30.10
GRAND MARAIS     N/A     -2  -8  76 VRB5      30.14R WCI -12
G MARAIS ARPRT CLEAR     -6 -13  71 NW7       29.98S WCI -20
$$
MNZ029>031-032-039>041-046>048-054>057-064-121400-
   West Central Minnesota

CITY           SKY/WX    TMP DP  RH WIND       PRES   REMARKS
FERGUS FALLS   CLOUDY    12   9  85 S8        30.18F WCI   1
WHEATON        CLOUDY    18  12  79 S7        30.18F WCI   8
MORRIS         CLOUDY    16  10  79 S6        30.17F WCI   7
ALEXANDRIA     CLOUDY    12   7  80 W6        30.16F WCI   3
ELBOW LAKE     CLOUDY    12   9  87 S7        30.16F WCI   2
WADENA         CLOUDY     9   5  85 SW3       30.13F
GLENWOOD       CLOUDY    10   7  85 SW6       30.17F WCI   1
APPLETON       MOCLDY    16  10  79 S3        30.21F
BENSON         CLOUDY    12   9  85 SW3       30.21F
ORTONVILLE     CLOUDY    16  12  86 S5        30.18F WCI   9
MADISON        CLOUDY    18  14  86 S6        30.21F WCI   9
WILLMAR        CLOUDY    12   9  85 W5        30.23S WCI   4
$$
MNZ033>034-036-042>043-049>051-058-059-121400-
   Central Minnesota

CITY           SKY/WX    TMP DP  RH WIND       PRES   REMARKS
ST CLOUD       CLOUDY     5   2  87 NW5       30.20F WCI  -4
SAUK CENTRE    CLOUDY    10   5  82 W7        30.18F WCI  -1
PAYNESVILLE    CLOUDY    10   7  88 W3        30.20F
AITKIN         PTCLDY    -2  -6  84 SW3       30.15F
PINE RIVER     CLOUDY     0  -4  85 CALM      30.18R
BRAINERD       CLOUDY     0  -5  79 CALM      30.17F
STAPLES        CLOUDY     7   3  85 CALM      30.15F
LONG PRAIRIE   CLOUDY     9   5  85 S6        30.17F WCI  -1
LITTLE FALLS   CLOUDY     3  -4  72 CALM      30.18F
LITCHFIELD     CLOUDY    10   7  85 W3        30.22S
BUFFALO        CLOUDY     8   3  79 W7        30.23S WCI  -3
MAPLE LAKE     CLOUDY    10   5  82 W6        30.22S WCI   0
HUTCHINSON     CLOUDY    10   6  81 W7        30.23F WCI   0
$$
MNZ037-044-045-052-053-121400-
   East Central Minnesota

CITY           SKY/WX    TMP DP  RH WIND       PRES   REMARKS
PRINCETON      CLOUDY     1  -2  85 W5        30.20S WCI  -8
MORA           CLOUDY     0  -4  85 CALM      30.21F
CAMBRIDGE      CLOUDY     3  -4  72 W5        30.20F WCI  -6
RUSH CITY      PTCLDY     1  -2  85 NW3       30.20F
MOOSE LAKE     CLOUDY     1  -4  78 CALM      30.16F
HINCKLEY       FAIR       3   0  85 NW5       30.17F WCI  -6
CLOQUET        CLOUDY     0  -6  78 W5        30.13S WCI -10
MCGREGOR       CLOUDY     1  -4  78 CALM      30.16S
$$
MNZ071>073-080-081-089-090-097-098-121400-
   Southwest Minnesota

CITY           SKY/WX    TMP DP  RH WIND       PRES   REMARKS
MONTEVIDEO     CLOUDY    10   9  92 W6        30.21F WCI   1
GRANITE FALLS  CLOUDY    12   9  87 SW5       30.25F WCI   4
CANBY          CLOUDY    23  19  85 SW5       30.22F WCI  16
MARSHALL       CLOUDY    14  10  84 SW9       30.23F WCI   2
REDWOOD FALLS  CLOUDY    12   7  80 W8        30.24F WCI   0
OLIVIA         CLOUDY    14  10  85 W5        30.22F WCI   6
PIPESTONE      CLOUDY    10   9  92 CALM      30.21F
WINDOM           N/A     10   0  61 W9        30.22F WCI  -2
WORTHINGTON    CLEAR     11   8  88 W8        30.23F WCI  -1
JACKSON        CLOUDY    12   9  85 MISG      30.23S
TRACY          CLOUDY    15  12  87 W6        30.22F WCI   6
SLAYTON        CLOUDY    10   8  88 W5        30.24S WCI   2
$$
MNZ065>067-074>077-082>085-091>093-121400-
   South Central Minnesota

CITY           SKY/WX    TMP DP  RH WIND       PRES   REMARKS
NEW ULM        CLOUDY    10   5  79 W7        30.24F WCI   0
ST JAMES       CLOUDY     9   5  85 W7        30.25F WCI  -3
FAIRMONT       CLEAR     10   6  84 NW10      30.24F WCI  -4
GLENCOE        CLOUDY    11   7  82 W9        30.22F WCI  -1
FARIBAULT      CLOUDY     9   3  78 W6        30.21S WCI  -1
OWATONNA       CLOUDY     9   3  78 W8        30.20S WCI  -4
WASECA         PTCLDY    10   5  79 W6        30.23S WCI   1
$$
MNZ078>079-086>088-094>096-121400-
   Southeast Minnesota

CITY           SKY/WX    TMP DP  RH WIND       PRES   REMARKS
ROCHESTER      CLEAR      5   3  91 NW8       30.18R WCI  -8
RED WING       CLOUDY     7   0  72 NW3       30.21F
STANTON        PTCLDY     8   4  81 CALM      30.20F
DODGE CENTER   CLOUDY     7   1  78 W7        30.17F WCI  -5
WINONA           N/A     12   9  85 N9        30.22S WCI   0
PRESTON        CLEAR      7   4  86 NW8       30.17S WCI  -5
$$
ABBREVIATIONS USED IN REMARKS
   TC - TEMPERATURES IN CELSIUS
  WCI - WIND CHILL INDEX
   HX - HEAT INDEX
  VSB - VISIBILITY
$$




USA.gov is the U.S. government's official web portal to all federal, state and local government web resources and services.